Location: Crayja
(6.2254°N, 10.6273°W)
Time: 07:32:28
(UTC+00:00)

Cosmos 2297 - Pass Details

Date: 17 February 2020
Orbit: 837 x 858 km, 71.0° (Epoch: 08 April)

Event Time Altitude Azimuth Distance (km) Brightness Sun altitude
Rises 06:21:57 0° 338° (NNW) 3,379 6.5 -9.7°
Reaches altitude 10° 06:24:24 10° 334° (NNW) 2,448 5.8 -9.1°
Maximum altitude 06:29:55 60° 255° (WSW) 956 3.8 -7.8°
Drops below altitude 10° 06:35:30 10° 176° (S) 2,466 6.3 -6.4°
Sets 06:37:59 0° 172° (S) 3,405 7.1 -5.8°
